Weather History for Ketchikan, AK

Change the Weather History Date:

Wednesday, January 2, 2013

  Actual Average Record
Temperature  
Mean Temperature 38 °F -  
Max Temperature 42 °F 38 °F 54 °F (2001)
Min Temperature 33 °F 28 °F 7 °F (2009)
Degree Days  
Heating Degree Days 28    
Moisture  
Dew Point 39 °F    
Average Humidity 98    
Maximum Humidity 100    
Minimum Humidity 92    
Precipitation  
Precipitation 3.39 in - - ()
Sea Level Pressure  
Sea Level Pressure 29.92 in    
Wind  
Wind Speed 16 mph (SSE)    
Max Wind Speed 29 mph    
Max Gust Speed 37 mph    
Visibility 7 miles    
Events Rain    
Averages and records for this station are not official NWS values.
T = Trace of Precipitation, MM = Missing Value Source: NWS Daily Summary

Daily Weather History Graph

Daily Weather History Graph

Search for Another Location

Airport:

Trip Planner

Search our weather history database for the weather conditions in past years. The results will help you decide how hot, cold, wet, or windy it might be!

Date:

Astronomy

Jan. 02, 2013 Rise Set
Actual Time 8:13 AM AKST 3:29 PM AKST
Civil Twilight 7:27 AM AKST 4:14 PM AKST
Nautical Twilight 6:40 AM AKST 5:02 PM AKST
Astronomical Twilight 5:55 AM AKST 5:46 PM AKST
Moon 10:14 PM AKST (1/2) 9:58 AM AKST (1/2)
Length of Visible Light 8h 46m
Length of Day
7h 15m
Waning Gibbous, 74% of the Moon is Illuminated
Jan 2
Waning Gibbous
Jan 4
Last Quarter
Jan 11
New
Jan 18
First Quarter
Jan 26
Full

Hourly Weather History & Observations

Time (AKST) Temp. Windchill Dew Point Humidity Pressure Visibility Wind Dir Wind Speed Gust Speed Precip Events Conditions
12:53 AM 42.1 °F 33.9 °F 39.9 °F 92% 29.96 in 6.0 mi SSE 17.3 mph 36.8 mph 0.23 in Rain Rain
1:21 AM 41.0 °F 33.5 °F 41.0 °F 100% 29.96 in 7.0 mi SSE 13.8 mph 26.5 mph 0.06 in Rain Rain
1:39 AM 42.8 °F 35.1 °F 42.8 °F 100% 29.96 in 7.0 mi SE 16.1 mph - 0.13 in Rain Light Rain
1:53 AM 42.1 °F 33.6 °F 42.1 °F 100% 29.96 in 7.0 mi SE 18.4 mph 34.5 mph 0.16 in Rain Rain
2:35 AM 42.8 °F 33.5 °F 42.8 °F 100% 29.94 in 6.0 mi SE 23.0 mph 29.9 mph 0.08 in Rain Light Rain
3:07 AM 42.8 °F 35.8 °F 42.8 °F 100% 29.93 in 5.0 mi SSE 13.8 mph 26.5 mph 0.03 in Rain Light Rain
3:53 AM 42.1 °F 32.6 °F 42.1 °F 100% 29.91 in 4.0 mi SE 23.0 mph 29.9 mph 0.19 in Rain Rain
4:07 AM 41.0 °F 31.9 °F 41.0 °F 100% 29.91 in 6.0 mi SSE 19.6 mph 32.2 mph 0.07 in Rain Rain
4:37 AM 41.0 °F 32.8 °F 41.0 °F 100% 29.89 in 7.0 mi SSE 16.1 mph 28.8 mph 0.15 in Rain Light Rain
4:53 AM 41.0 °F 33.9 °F 41.0 °F 100% 29.90 in 7.0 mi SSE 12.7 mph 23.0 mph 0.20 in Rain Light Rain
5:01 AM 41.0 °F 33.1 °F 41.0 °F 100% 29.89 in 7.0 mi SSE 15.0 mph 23.0 mph 0.02 in Rain Rain
5:27 AM 42.8 °F 34.8 °F 42.8 °F 100% 29.90 in 6.0 mi SE 17.3 mph 29.9 mph 0.09 in Rain Rain
5:33 AM 42.8 °F 34.8 °F 42.8 °F 100% 29.89 in 7.0 mi SE 17.3 mph 27.6 mph 0.11 in Rain Light Rain
5:44 AM 42.8 °F 34.8 °F 42.8 °F 100% 29.89 in 7.0 mi SE 17.3 mph 23.0 mph 0.13 in Rain Rain
5:53 AM 42.1 °F 33.3 °F 42.1 °F 100% 29.89 in 7.0 mi SE 19.6 mph 25.3 mph 0.15 in Rain Rain
6:11 AM 42.8 °F 32.5 °F 41.0 °F 93% 29.88 in 8.0 mi ESE 28.8 mph 34.5 mph N/A Rain Light Rain
6:53 AM 42.8 °F 34.8 °F 41.0 °F 93% 29.89 in 6.0 mi SE 17.3 mph 34.5 mph N/A Rain Rain
7:53 AM 41.0 °F 31.4 °F 39.9 °F 96% 29.87 in 6.0 mi SE 21.9 mph 31.1 mph 0.15 in Rain Rain
8:53 AM 39.9 °F 30.2 °F 39.0 °F 97% 29.87 in 7.0 mi SE 20.7 mph 26.5 mph 0.23 in Rain Rain
9:53 AM 39.0 °F 30.3 °F 37.9 °F 96% 29.88 in 7.0 mi SE 16.1 mph 25.3 mph 0.14 in Rain Light Rain
10:53 AM 39.9 °F 31.1 °F 39.0 °F 97% 29.87 in 3.0 mi SE 17.3 mph 32.2 mph 0.19 in Rain Rain
11:53 AM 39.9 °F 29.7 °F 37.9 °F 93% 29.85 in 6.0 mi SE 23.0 mph 29.9 mph 0.26 in Rain Rain
12:53 PM 39.9 °F 30.0 °F 39.0 °F 97% 29.84 in 4.0 mi SE 21.9 mph 29.9 mph 0.23 in Rain Rain
1:53 PM 39.9 °F 29.0 °F 37.9 °F 93% 29.83 in 6.0 mi SE 26.5 mph 34.5 mph 0.30 in Rain Rain
2:53 PM 39.9 °F 30.8 °F 39.9 °F 100% 29.84 in 3.0 mi SE 18.4 mph 28.8 mph 0.29 in Rain Heavy Rain
3:53 PM 41.0 °F 34.3 °F 39.0 °F 93% 29.86 in 4.0 mi SSE 11.5 mph 23.0 mph 0.29 in Rain Heavy Rain
4:53 PM 37.0 °F 27.7 °F 36.0 °F 96% 29.89 in 4.0 mi NNW 16.1 mph 20.7 mph 0.26 in Rain Heavy Rain
5:53 PM 35.1 °F 28.6 °F 35.1 °F 100% 29.91 in 8.0 mi WNW 8.1 mph - 0.11 in Rain Light Rain
6:53 PM 37.9 °F 35.5 °F 37.0 °F 97% 29.92 in 10.0 mi Variable 3.5 mph - 0.01 in   Overcast
7:53 PM 36.0 °F - 36.0 °F 100% 29.95 in 10.0 mi Calm Calm - N/A   Scattered Clouds
8:32 PM 33.8 °F 28.6 °F 33.8 °F 100% 29.96 in 10.0 mi WNW 5.8 mph - N/A   Partly Cloudy
8:48 PM 35.6 °F 29.9 °F 35.6 °F 100% 29.96 in 10.0 mi NW 6.9 mph - N/A   Mostly Cloudy
8:53 PM 35.1 °F 29.3 °F 35.1 °F 100% 29.97 in 10.0 mi WNW 6.9 mph - N/A   Mostly Cloudy
9:10 PM 35.6 °F 29.9 °F 35.6 °F 100% 29.97 in 10.0 mi NW 6.9 mph - N/A   Overcast
9:33 PM 35.6 °F 29.9 °F 35.6 °F 100% 29.98 in 10.0 mi NW 6.9 mph - N/A   Overcast
9:53 PM 36.0 °F 29.0 °F 36.0 °F 100% 29.99 in 10.0 mi NW 9.2 mph - N/A   Overcast
10:10 PM 35.6 °F 29.9 °F 35.6 °F 100% 29.98 in 10.0 mi WNW 6.9 mph - N/A   Overcast
10:53 PM 36.0 °F 30.3 °F 36.0 °F 100% 30.00 in 10.0 mi NW 6.9 mph - N/A   Overcast
11:53 PM 36.0 °F 31.1 °F 36.0 °F 100% 30.01 in 10.0 mi NNW 5.8 mph - N/A   Overcast